Weather History for KHNB - December, 2011

Change the Weather History Date:

Monday, December 5, 2011

  Actual Average Record
Temperature  
Mean Temperature 42 °F -  
Max Temperature 44 °F 45 °F 69 °F (2001)
Min Temperature 39 °F 32 °F 15 °F (2008)
Degree Days  
Heating Degree Days 24    
Moisture  
Dew Point 40 °F    
Average Humidity 92    
Maximum Humidity 100    
Minimum Humidity 87    
Precipitation  
Precipitation 1.38 in - - ()
Sea Level Pressure  
Sea Level Pressure 30.11 in    
Wind  
Wind Speed 10 mph (NW)    
Max Wind Speed 16 mph    
Max Gust Speed 23 mph    
Visibility 9 miles    
Events      
Averages and records for this station are not official NWS values.
T = Trace of Precipitation, MM = Missing Value Source: NWS Daily Summary

Daily Weather History Graph

Daily Weather History Graph

Search for Another Location

Airport or City:

Trip Planner

Search our weather history database for the weather conditions in past years. The results will help you decide how hot, cold, wet, or windy it might be!

Date:

Astronomy

Dec. 05, 2011 Rise Set
Actual Time 7:49 AM EST 5:27 PM EST
Civil Twilight 7:19 AM EST 5:56 PM EST
Nautical Twilight 6:46 AM EST 6:29 PM EST
Astronomical Twilight 6:15 AM EST 7:01 PM EST
Moon 2:22 PM EST (12/5) 3:13 AM EST (12/5)
Length of Visible Light 10h 36m
Length of Day
9h 38m
Waxing Gibbous, 79% of the Moon is Illuminated
Dec 5
Waxing Gibbous
Dec 10
Full
Dec 17
Last Quarter
Dec 24
New
Jan 1
First Quarter

Hourly Weather History & Observations

Time (EST) Temp. Windchill Dew Point Humidity Pressure Visibility Wind Dir Wind Speed Gust Speed Precip Events Conditions
12:15 AM 44.6 °F 39.7 °F 42.8 °F 93% 30.15 in 8.0 mi NW 9.2 mph - 0.01 in   Overcast
12:35 AM 44.6 °F 39.2 °F 42.8 °F 93% 30.15 in 9.0 mi NW 10.4 mph - 0.02 in   Overcast
12:55 AM 44.6 °F 38.4 °F 42.8 °F 93% 30.15 in 10.0 mi NW 12.7 mph 16.1 mph 0.03 in   Overcast
1:15 AM 44.6 °F 38.8 °F 42.8 °F 93% 30.15 in 9.0 mi NW 11.5 mph - 0.02 in   Overcast
1:35 AM 44.6 °F 38.8 °F 42.8 °F 93% 30.15 in 8.0 mi NW 11.5 mph - 0.05 in   Overcast
1:55 AM 42.8 °F 37.0 °F 42.8 °F 100% 30.15 in 9.0 mi WNW 10.4 mph - 0.09 in   Overcast
2:15 AM 42.8 °F 37.0 °F 42.8 °F 100% 30.14 in 8.0 mi NW 10.4 mph - 0.05 in   Overcast
2:35 AM 42.8 °F 37.5 °F 41.0 °F 93% 30.13 in 8.0 mi NW 9.2 mph 16.1 mph 0.09 in   Overcast
2:55 AM 42.8 °F 37.0 °F 41.0 °F 93% 30.13 in 10.0 mi NNW 10.4 mph 16.1 mph 0.10 in   Overcast
3:15 AM 42.8 °F 37.0 °F 41.0 °F 93% 30.14 in 10.0 mi NW 10.4 mph - N/A   Overcast
3:55 AM 42.8 °F 38.6 °F 42.8 °F 100% 30.13 in 10.0 mi NW 6.9 mph - 0.02 in   Overcast
4:15 AM 44.6 °F 40.2 °F 42.8 °F 93% 30.13 in 9.0 mi NW 8.1 mph - N/A   Overcast
4:35 AM 44.6 °F 40.2 °F 42.8 °F 93% 30.13 in 8.0 mi NW 8.1 mph - 0.01 in   Overcast
5:15 AM 44.6 °F 40.7 °F 42.8 °F 93% 30.14 in 7.0 mi NW 6.9 mph - 0.04 in   Overcast
5:35 AM 42.8 °F 35.4 °F 42.8 °F 100% 30.13 in 10.0 mi NNW 15.0 mph - 0.07 in   Overcast
6:15 AM 42.8 °F 37.0 °F 41.0 °F 93% 30.18 in 8.0 mi WNW 10.4 mph - 0.06 in   Overcast
6:35 AM 42.8 °F 38.0 °F 39.2 °F 87% 30.18 in 9.0 mi NW 8.1 mph - 0.11 in   Overcast
6:55 AM 42.8 °F 35.8 °F 39.2 °F 87% 30.16 in 10.0 mi NNW 13.8 mph 19.6 mph 0.13 in   Overcast
7:35 AM 42.8 °F 36.6 °F 39.2 °F 87% 30.15 in 10.0 mi NNW 11.5 mph - 0.02 in   Overcast
7:55 AM 42.8 °F 37.5 °F 39.2 °F 87% 30.14 in 10.0 mi North 9.2 mph - 0.02 in   Overcast
8:15 AM 42.8 °F 37.0 °F 39.2 °F 87% 30.13 in 10.0 mi North 10.4 mph - 0.01 in   Overcast
8:35 AM 42.8 °F 38.0 °F 41.0 °F 93% 30.13 in 9.0 mi North 8.1 mph - 0.04 in   Overcast
8:55 AM 42.8 °F 39.3 °F 41.0 °F 93% 30.13 in 7.0 mi NNE 5.8 mph - 0.07 in   Overcast
9:15 AM 42.8 °F 40.1 °F 41.0 °F 93% 30.14 in 10.0 mi NNW 4.6 mph - 0.03 in   Mostly Cloudy
9:35 AM 42.8 °F 38.6 °F 41.0 °F 93% 30.13 in 9.0 mi NW 6.9 mph - 0.07 in   Mostly Cloudy
9:55 AM 42.8 °F 38.0 °F 41.0 °F 93% 30.12 in 9.0 mi North 8.1 mph - 0.10 in   Overcast
10:15 AM 42.8 °F 37.5 °F 42.8 °F 100% 30.10 in 10.0 mi North 9.2 mph - 0.02 in   Overcast
10:35 AM 42.8 °F 38.0 °F 41.0 °F 93% 30.10 in 10.0 mi North 8.1 mph - 0.03 in   Overcast
10:55 AM 42.8 °F 40.1 °F 41.0 °F 93% 30.11 in 10.0 mi NW 4.6 mph - 0.05 in   Overcast
11:15 AM 44.6 °F 40.7 °F 42.8 °F 93% 30.10 in 9.0 mi NNW 6.9 mph - 0.03 in   Overcast
11:35 AM 44.6 °F 40.2 °F 42.8 °F 93% 30.09 in 9.0 mi NW 8.1 mph - 0.06 in   Overcast
11:55 AM 42.8 °F 37.5 °F 41.0 °F 93% 30.07 in 8.0 mi NW 9.2 mph 16.1 mph 0.08 in   Overcast
12:15 PM 42.8 °F 37.0 °F 41.0 °F 93% 30.06 in 7.0 mi NW 10.4 mph - 0.03 in   Overcast
12:35 PM 42.8 °F 37.0 °F 41.0 °F 93% 30.07 in 8.0 mi WNW 10.4 mph - 0.08 in   Overcast
12:55 PM 42.8 °F 36.6 °F 39.2 °F 87% 30.07 in 6.0 mi WNW 11.5 mph - 0.13 in   Overcast
1:15 PM 42.8 °F 36.6 °F 39.2 °F 87% 30.07 in 8.0 mi WNW 11.5 mph 17.3 mph 0.08 in   Overcast
1:35 PM 41.0 °F 33.9 °F 39.2 °F 93% 30.05 in 6.0 mi NW 12.7 mph 18.4 mph 0.13 in   Overcast
1:55 PM 41.0 °F 33.1 °F 39.2 °F 93% 30.06 in 10.0 mi NW 15.0 mph 18.4 mph 0.17 in   Overcast
2:15 PM 41.0 °F 33.1 °F 39.2 °F 93% 30.05 in 8.0 mi NW 15.0 mph 18.4 mph 0.05 in   Overcast
2:35 PM 41.0 °F 33.1 °F 39.2 °F 93% 30.06 in 9.0 mi NW 15.0 mph 20.7 mph 0.08 in   Overcast
2:55 PM 41.0 °F 33.1 °F 39.2 °F 93% 30.06 in 7.0 mi NW 15.0 mph 23.0 mph 0.13 in   Overcast
3:15 PM 41.0 °F 33.9 °F 39.2 °F 93% 30.06 in 7.0 mi WNW 12.7 mph - 0.03 in   Overcast
3:35 PM 41.0 °F 34.7 °F 39.2 °F 93% 30.05 in 8.0 mi NW 10.4 mph - 0.08 in   Overcast
3:55 PM 41.0 °F 35.8 °F 37.4 °F 87% 30.06 in 8.0 mi NW 8.1 mph - 0.11 in   Overcast
4:15 PM 41.0 °F 34.3 °F 37.4 °F 87% 30.07 in 8.0 mi NW 11.5 mph - 0.03 in   Overcast
4:35 PM 41.0 °F 35.8 °F 37.4 °F 87% 30.08 in 9.0 mi WNW 8.1 mph - 0.05 in   Overcast
4:55 PM 41.0 °F 34.3 °F 39.2 °F 93% 30.07 in 10.0 mi NW 11.5 mph - 0.06 in   Overcast
5:15 PM 41.0 °F 34.3 °F 39.2 °F 93% 30.08 in 10.0 mi NW 11.5 mph 16.1 mph N/A   Overcast
5:35 PM 41.0 °F 34.3 °F 39.2 °F 93% 30.08 in 10.0 mi WNW 11.5 mph 17.3 mph N/A   Overcast
5:55 PM 41.0 °F 34.3 °F 39.2 °F 93% 30.08 in 8.0 mi NW 11.5 mph - N/A   Overcast
6:15 PM 41.0 °F 35.8 °F 37.4 °F 87% 30.08 in 8.0 mi WNW 8.1 mph 17.3 mph N/A   Overcast
6:35 PM 41.0 °F 34.3 °F 39.2 °F 93% 30.10 in 10.0 mi WNW 11.5 mph 16.1 mph N/A   Overcast
6:55 PM 41.0 °F 33.9 °F 39.2 °F 93% 30.11 in 10.0 mi WNW 12.7 mph - N/A   Overcast
7:15 PM 41.0 °F 33.5 °F 37.4 °F 87% 30.13 in 4.0 mi WNW 13.8 mph 19.6 mph N/A   Overcast
7:35 PM 41.0 °F 32.8 °F 37.4 °F 87% 30.13 in 4.0 mi WNW 16.1 mph 23.0 mph 0.01 in   Overcast
7:55 PM 41.0 °F 34.7 °F 37.4 °F 87% 30.14 in 5.0 mi NW 10.4 mph - 0.01 in   Overcast
8:15 PM 39.2 °F 32.5 °F 37.4 °F 93% 30.12 in 9.0 mi NW 10.4 mph 19.6 mph N/A   Overcast
8:35 PM 39.2 °F 33.0 °F 37.4 °F 93% 30.12 in 10.0 mi NNW 9.2 mph 16.1 mph N/A   Overcast
8:55 PM 39.2 °F 32.5 °F 37.4 °F 93% 30.12 in 10.0 mi NW 10.4 mph - N/A   Overcast
9:15 PM 41.0 °F 34.7 °F 37.4 °F 87% 30.12 in 10.0 mi NW 10.4 mph - N/A   Overcast
9:35 PM 41.0 °F 35.2 °F 37.4 °F 87% 30.12 in 10.0 mi WNW 9.2 mph 16.1 mph N/A   Overcast
9:55 PM 41.0 °F 36.4 °F 37.4 °F 87% 30.12 in 10.0 mi NW 6.9 mph - N/A   Overcast
10:15 PM 41.0 °F 36.4 °F 37.4 °F 87% 30.12 in 10.0 mi NNW 6.9 mph - N/A   Overcast
10:35 PM 41.0 °F 35.8 °F 37.4 °F 87% 30.12 in 10.0 mi NNW 8.1 mph - N/A   Overcast
11:15 PM 41.0 °F 38.0 °F 37.4 °F 87% 30.12 in 10.0 mi NW 4.6 mph - N/A   Overcast
11:35 PM 41.0 °F 34.3 °F 37.4 °F 87% 30.12 in 10.0 mi WNW 11.5 mph - N/A   Overcast
11:55 PM 41.0 °F 34.7 °F 37.4 °F 87% 30.13 in 10.0 mi WNW 10.4 mph - N/A   Overcast